#datint,netname,site,siteID,timestamp,IntT,BattV,AirT2,AirT,AirT_Avg,AirT_Max,AirT_Min,RH_Avg,RH_Max,RH_Min,EA_Avg,Td_Avg,Td_Max,Td_Min,WindS_Smp,WindS_Avg,WindD_Avg,WindD_SD,WindS_Max,ETo,ETr,SoilT4,SoilT8,SoilVWC8,SolarW_Avg,wetstate_Avg,wetT_Avg,Precip_accum,Precip_WPG,Precip_TB
15min,AgWx,beryljct,423,12MAY2020:00:00:00,59.1,12.94,56.2,56.0,57.0,57.9,56.0,20,21,19,0.327,16.4,17.2,15.3,7.629,7.1,204,6.6,10.0,0.00060,0.00080,58.4,58.1,13,0,0,51.0,13.51,0.00,0.00
15min,AgWx,beryljct,423,12MAY2020:00:15:00,58.4,12.91,59.2,59.1,57.6,59.2,56.0,19,21,17,0.300,15.5,16.7,14.5,9.29,9.1,193,6.6,12.3,0.00075,0.00096,58.3,58.1,13,0,0,51.7,13.51,0.00,0.00
15min,AgWx,beryljct,423,12MAY2020:00:30:00,58.2,12.91,59.3,59.5,58.7,59.7,58.1,18,19,17,0.301,15.3,16.4,14.2,8.07,8.9,183,7.3,11.4,0.00077,0.00099,58.1,58.1,13,0,0,53.1,13.51,0.00,0.00
15min,AgWx,beryljct,423,12MAY2020:00:45:00,58.2,12.91,60.5,58.6,59.3,60.2,58.5,18,20,17,0.325,16.3,18.1,14.8,8.55,7.2,179,6.8,10.3,0.00065,0.00087,57.9,58.1,13,0,0,53.4,13.51,0.00,0.00
15min,AgWx,beryljct,423,12MAY2020:01:00:00,58.2,12.9,58.0,58.8,59.9,60.8,58.8,18,21,16,0.352,16.3,18.7,14.6,5.108,7.5,190,7.8,11.2,0.00069,0.00092,57.7,58.0,13,0,0,54.0,13.51,0.00,0.00
15min,AgWx,beryljct,423,12MAY2020:01:15:00,57.7,12.9,57.1,58.5,57.5,59.2,55.5,21,27,18,0.327,18.2,22.4,15.1,5.568,5.0,195,11,10.2,0.00040,0.00058,57.6,58.0,13,0,0,51.1,13.51,0.00,0.00
15min,AgWx,beryljct,423,12MAY2020:01:30:00,56.7,12.89,57.9,53.7,55.8,59.5,52.7,23,30,17,0.314,18.3,23.6,14.2,3.069,3.2,191,14,5.3,0.00018,0.00030,57.4,57.9,13,0,0,48.6,13.51,0.00,0.00
15min,AgWx,beryljct,423,12MAY2020:01:45:00,55.0,12.88,51.8,51.8,51.6,55.1,49.2,30,40,21,0.368,21.0,26.6,15.6,2.565,2.5,214,4.1,3.7,0.00005,0.00012,57.2,57.9,13,0,0,44.7,13.51,0.00,0.00
15min,AgWx,beryljct,423,12MAY2020:02:00:00,53.4,12.87,51.8,55.4,52.9,55.9,50.2,27,35,20,0.313,19.6,23.6,15.6,2.872,3.0,204,22,5.3,0.00012,0.00022,57.1,57.9,13,0,0,45.5,13.51,0.00,0.00
15min,AgWx,beryljct,423,12MAY2020:02:15:00,52.2,12.87,54.5,53.6,52.5,55.2,49.9,28,37,22,0.353,20.4,25.0,16.9,1.447,1.8,199,16,5.3,-0.00005,-0.00003,56.9,57.8,13,0,0,44.7,13.51,0.00,0.00
15min,AgWx,beryljct,423,12MAY2020:02:30:00,51.4,12.84,57.7,56.8,53.9,56.8,51.0,25,36,20,0.307,18.9,25.5,15.6,4.582,2.0,217,13,4.8,-0.00002,0.00002,56.7,57.8,13,0,0,45.4,13.51,0.00,0.00
15min,AgWx,beryljct,423,12MAY2020:02:45:00,50.7,12.84,47.7,46.2,51.1,58.8,44.8,35,49,18,0.454,22.7,27.6,15.0,6.029,4.8,243,3.8,6.1,0.00027,0.00039,56.6,57.7,13,0,0,45.5,13.52,0.00,0.00
15min,AgWx,beryljct,423,12MAY2020:03:00:00,49.0,12.83,47.8,47.0,43.9,47.4,41.7,50,57,38,0.416,26.3,28.4,22.7,4.494,4.6,239,8.5,7.1,0.00012,0.00018,56.4,57.7,13,0,0,37.9,13.52,0.00,0.00
15min,AgWx,beryljct,423,12MAY2020:03:15:00,47.7,12.82,42.5,44.9,45.9,49.3,43.4,44,53,34,0.484,25.1,27.4,21.9,3.069,4.0,230,13,6.1,0.00012,0.00019,56.2,57.7,13,0,0,39.2,13.52,0.00,0.00
15min,AgWx,beryljct,423,12MAY2020:03:30:00,47.1,12.82,49.8,48.4,47.9,50.9,43.4,38,53,30,0.384,23.4,27.4,20.1,2.85,2.8,221,28,5.1,0.00005,0.00010,56.0,57.6,13,0,0,40.2,13.52,0.00,0.00
15min,AgWx,beryljct,423,12MAY2020:03:45:00,46.9,12.8,50.5,49.7,48.1,50.3,45.3,34,44,27,0.356,21.1,24.7,17.7,3.551,3.3,203,13,5.1,0.00011,0.00018,55.8,57.5,13,0,0,40.5,13.52,0.00,0.00
15min,AgWx,beryljct,423,12MAY2020:04:00:00,46.5,12.8,43.9,41.5,44.9,51.2,40.7,43,54,27,0.447,23.5,25.7,18.2,2.565,3.1,196,16,5.6,0.00006,0.00011,55.7,57.5,13,0,0,38.4,13.52,0.00,0.00
15min,AgWx,beryljct,423,12MAY2020:04:15:00,45.9,12.8,45.9,45.4,45.9,50.2,41.9,40,49,31,0.408,22.8,24.9,20.4,4.45,3.9,188,8.5,6.2,0.00013,0.00021,55.5,57.4,13,0,0,38.3,13.52,0.00,0.00
15min,AgWx,beryljct,423,12MAY2020:04:30:00,45.5,12.79,41.0,46.2,46.2,49.3,43.6,40,48,32,0.463,22.9,25.2,20.4,0.658,3.7,202,18,5.6,0.00013,0.00020,55.3,57.4,13,0,0,39.7,13.52,0.00,0.00
15min,AgWx,beryljct,423,12MAY2020:04:45:00,45.1,12.78,47.5,41.7,46.1,50.2,40.4,40,57,31,0.459,23.0,26.5,20.7,0.329,2.8,174,63,6.7,0.00004,0.00009,55.1,57.3,13,0,0,38.6,13.53,0.00,0.00
15min,AgWx,beryljct,423,12MAY2020:05:00:00,44.6,12.77,39.5,42.9,44.6,47.2,42.6,44,50,36,0.462,23.9,25.5,21.6,5.042,1.7,349,68,5.0,-0.00009,-0.00010,55.0,57.2,13,0,0,36.9,13.53,0.00,0.00
15min,AgWx,beryljct,423,12MAY2020:05:15:00,43.9,12.75,45.8,42.5,41.6,45.4,39.2,53,61,40,0.467,25.6,27.0,22.4,1.841,2.1,276,39,5.7,-0.00006,-0.00006,54.8,57.2,13,0,0,35.6,13.53,0.00,0.00
15min,AgWx,beryljct,423,12MAY2020:05:30:00,43.3,12.75,44.0,43.3,46.8,49.7,41.4,40,56,32,0.475,23.1,27.0,21.0,0.658,0.3,176,0.1,1.9,-0.00030,-0.00046,54.6,57.1,13,0,0,37.5,13.53,0.00,0.00
15min,AgWx,beryljct,423,12MAY2020:05:45:00,43.2,12.76,51.7,49.3,46.4,49.6,42.9,40,49,34,0.406,23.3,25.7,21.4,4.253,2.7,168,19,7.1,0.00036,0.00063,54.4,57.1,13,0,0,37.4,13.53,0.00,0.00
15min,AgWx,beryljct,423,12MAY2020:06:00:00,43.9,12.75,48.1,48.3,47.3,50.1,44.9,40,46,32,0.433,24.2,25.5,21.6,2.499,5.5,171,18,8.6,0.00069,0.00121,54.3,57.0,13,0,0,40.7,13.53,0.00,0.00
15min,AgWx,beryljct,423,12MAY2020:06:15:00,44.7,12.74,42.6,44.8,48.5,49.7,44.8,39,48,36,0.488,24.7,26.5,23.6,0.745,2.6,165,19,5.0,0.00039,0.00067,54.1,56.9,13,0,0,40.2,13.53,0.00,0.00
15min,AgWx,beryljct,423,12MAY2020:06:30:00,44.9,12.75,43.6,44.9,45.6,47.3,43.9,46,51,42,0.489,26.1,27.0,25.4,0.899,2.5,107,79,5.1,0.00032,0.00055,53.9,56.9,13,3,0,38.6,13.53,0.00,0.00
15min,AgWx,beryljct,423,12MAY2020:06:45:00,44.8,12.75,48.6,47.2,47.5,51.0,44.4,43,50,35,0.490,25.7,27.1,24.0,4.099,3.2,158,22,7.8,0.00046,0.00077,53.8,56.8,13,9,0,40.3,13.53,0.00,0.00
15min,AgWx,beryljct,423,12MAY2020:07:00:00,46.1,12.76,53.4,52.9,52.0,53.1,47.4,33,43,32,0.440,24.1,26.3,23.3,5.217,6.9,179,10,10.8,0.00113,0.00188,53.7,56.8,13,31,0,48.7,13.53,0.00,0.00
15min,AgWx,beryljct,423,12MAY2020:07:15:00,48.1,12.75,46.2,45.7,50.8,53.0,44.8,39,55,32,0.534,26.1,29.4,23.9,2.324,3.7,143,53,7.3,0.00098,0.00142,53.5,56.7,13,95,0,61.6,13.53,0.00,0.00
15min,AgWx,beryljct,423,12MAY2020:07:30:00,49.6,12.77,55.8,55.7,50.1,55.7,45.9,43,54,32,0.478,28.1,30.4,25.9,7.826,3.2,133,61,9.4,0.00106,0.00142,53.4,56.6,13,148,0,69.0,13.53,0.00,0.00
15min,AgWx,beryljct,423,12MAY2020:07:45:00,52.4,12.79,57.3,57.4,56.7,57.4,55.7,31,34,28,0.451,26.0,27.7,24.6,14.86,10.5,195,9.5,17.0,0.00223,0.00343,53.3,56.5,13,178,0,70.4,13.53,0.00,0.00
15min,AgWx,beryljct,423,12MAY2020:08:00:00,54.7,12.79,57.3,57.2,57.1,57.4,56.7,30,32,28,0.479,26.2,27.5,24.9,12.89,11.1,197,9.9,15.2,0.00240,0.00367,53.2,56.5,13,193,0,68.2,13.53,0.00,0.00
15min,AgWx,beryljct,423,12MAY2020:08:15:00,56.4,12.84,58.2,58.1,57.5,58.1,57.1,30,32,29,0.504,26.5,28.2,25.3,9.89,12.2,197,10,18.5,0.00268,0.00406,53.1,56.4,13,234,0,69.1,13.53,0.00,0.00
15min,AgWx,beryljct,423,12MAY2020:08:30:00,57.9,12.89,58.9,58.9,58.6,59.0,58.0,30,32,28,0.534,27.3,28.8,25.9,9.95,12.4,193,9.5,18.8,0.00301,0.00444,53.0,56.3,13,301,0,73.9,13.52,0.00,0.00
15min,AgWx,beryljct,423,12MAY2020:08:45:00,59.2,12.94,59.1,59.1,59.0,59.3,58.8,31,33,29,0.533,28.4,30.2,27.1,12.12,13.3,201,9.1,21.6,0.00319,0.00469,52.9,56.2,13,327,0,73.4,13.52,0.00,0.00
15min,AgWx,beryljct,423,12MAY2020:09:00:00,60.1,13.12,59.6,59.8,59.4,59.9,59.0,30,33,28,0.520,28.2,29.9,26.9,15.41,16.2,197,8.6,20.2,0.00365,0.00538,52.9,56.1,13,391,0,74.1,13.52,0.00,0.00
15min,AgWx,beryljct,423,12MAY2020:09:15:00,61.0,13.33,60.2,60.3,59.8,60.3,59.5,30,32,28,0.534,28.2,30.2,26.9,22.01,18.2,192,9.1,24.1,0.00402,0.00590,52.9,56.1,13,449,0,75.0,13.52,0.00,0.00
15min,AgWx,beryljct,423,12MAY2020:09:30:00,61.7,13.53,60.3,60.2,60.0,60.3,59.8,31,34,29,0.548,29.3,31.4,27.4,19.82,16.8,202,12,23.8,0.00408,0.00588,52.9,56.0,13,479,0,75.9,13.52,0.00,0.00
15min,AgWx,beryljct,423,12MAY2020:09:45:00,62.2,13.74,60.7,60.9,60.4,61.0,60.0,31,34,29,0.554,29.6,32.1,28.5,15.98,17.2,202,8.7,22.6,0.00434,0.00618,52.9,55.9,13,535,0,76.6,13.52,0.00,0.00
15min,AgWx,beryljct,423,12MAY2020:10:00:00,63.0,14.05,61.5,61.3,61.1,61.4,60.7,30,33,29,0.584,29.8,31.6,28.4,16.27,17.7,201,8.5,22.6,0.00469,0.00662,53.0,55.9,13,602,0,78.7,13.51,0.00,0.00
15min,AgWx,beryljct,423,12MAY2020:10:15:00,63.8,14.24,61.9,62.0,61.7,62.3,61.2,31,33,29,0.560,30.7,32.2,28.5,19.03,17.1,204,9.3,23.2,0.00497,0.00689,53.0,55.8,13,672,0,80.6,13.51,0.00,0.00
15min,AgWx,beryljct,423,12MAY2020:10:30:00,64.3,14.21,61.9,61.9,61.7,62.3,61.3,31,32,29,0.583,30.5,31.8,29.4,15.98,18.3,206,9.7,23.0,0.00503,0.00703,53.1,55.8,13,665,0,78.5,13.51,0.00,0.00
15min,AgWx,beryljct,423,12MAY2020:10:45:00,64.7,14.25,62.8,62.5,62.1,62.5,61.7,31,34,28,0.612,30.9,33.5,28.6,15.87,17.2,204,9.3,24.9,0.00526,0.00722,53.2,55.7,13,728,0,80.4,13.51,0.00,0.00
15min,AgWx,beryljct,423,12MAY2020:11:00:00,65.4,14.18,63.6,63.3,62.9,63.6,62.3,31,34,29,0.664,32.2,34.6,30.3,11.42,15.1,203,12,20.6,0.00551,0.00736,53.3,55.7,13,790,0,83.6,13.51,0.00,0.00
15min,AgWx,beryljct,423,12MAY2020:11:15:00,66.3,14.17,62.9,63.9,63.8,64.5,63.3,29,34,26,0.525,30.8,34.8,28.3,15.37,18.0,184,9.6,23.9,0.00604,0.00820,53.5,55.7,13,858,0,83.9,13.50,0.00,0.00
15min,AgWx,beryljct,423,12MAY2020:11:30:00,67.1,14.16,65.0,64.4,64.1,65.0,63.5,29,32,27,0.578,31.0,34.2,28.7,17.6,17.3,191,11,24.4,0.00605,0.00818,53.6,55.6,13,853,0,84.0,13.51,0.00,0.00
15min,AgWx,beryljct,423,12MAY2020:11:45:00,67.7,14.16,64.5,64.9,64.7,65.4,64.1,30,33,28,0.649,32.6,35.3,30.3,9.49,14.5,203,13,21.8,0.00629,0.00823,53.8,55.5,13,926,0,86.8,13.50,0.00,0.00
15min,AgWx,beryljct,423,12MAY2020:12:00:00,68.2,14.22,64.0,64.4,65.1,65.7,64.3,30,34,26,0.611,33.1,36.5,29.5,18.79,15.2,213,14,20.7,0.00641,0.00841,54.1,55.5,13,943,0,86.3,13.50,0.00,0.00
15min,AgWx,beryljct,423,12MAY2020:12:15:00,68.5,14.2,65.0,65.6,65.3,66.2,64.3,30,35,27,0.700,33.4,36.9,30.8,15.72,15.0,213,16,21.1,0.00651,0.00851,54.3,55.5,13,960,0,85.6,13.50,0.00,0.00
15min,AgWx,beryljct,423,12MAY2020:12:30:00,68.9,14.13,65.8,65.9,65.8,66.4,65.1,29,33,26,0.688,32.9,35.9,30.5,19.29,15.7,205,17,20.8,0.00670,0.00879,54.7,55.5,13,978,0,85.7,13.50,0.00,0.00
15min,AgWx,beryljct,423,12MAY2020:12:45:00,69.2,13.69,65.8,66.3,66.2,66.7,65.4,29,34,27,0.648,33.4,37.4,30.9,20.19,16.6,217,11,22.8,0.00682,0.00899,55.0,55.5,13,993,0,84.2,13.50,0.00,0.00
15min,AgWx,beryljct,423,12MAY2020:13:00:00,69.4,13.72,67.1,67.0,66.6,67.0,65.8,29,34,27,0.637,32.9,37.2,31.4,17.12,17.0,213,11,22.3,0.00694,0.00920,55.5,55.5,13,1005,0,83.6,13.50,0.00,0.00
15min,AgWx,beryljct,423,12MAY2020:13:15:00,69.8,13.73,66.7,67.0,67.0,68.0,66.4,28,31,26,0.695,33.0,35.2,30.7,14.25,17.7,213,14,25.4,0.00706,0.00939,55.9,55.5,12,1011,0,83.3,13.50,0.00,0.00
15min,AgWx,beryljct,423,12MAY2020:13:30:00,70.2,13.68,67.2,67.4,67.9,68.8,67.0,28,33,24,0.610,33.3,37.7,30.1,18.59,17.5,206,13,25.7,0.00719,0.00955,56.3,55.5,13,1015,0,83.8,13.50,0.00,0.00
15min,AgWx,beryljct,423,12MAY2020:13:45:00,70.6,13.67,67.9,68.0,68.1,68.8,67.4,25,29,23,0.613,31.4,34.5,28.7,17.56,20.3,201,9.6,27.3,0.00737,0.01002,56.8,55.5,12,1015,0,82.2,13.50,0.00,0.00
15min,AgWx,beryljct,423,12MAY2020:14:00:00,70.9,13.71,68.6,68.3,68.3,69.4,67.7,26,31,24,0.609,32.5,36.7,30.0,18.66,17.0,205,13,26.1,0.00724,0.00962,57.2,55.5,12,1010,0,83.1,13.50,0.00,0.00
15min,AgWx,beryljct,423,12MAY2020:14:15:00,71.3,13.69,67.8,67.9,68.4,69.6,67.6,27,31,24,0.663,33.1,36.9,30.3,18.35,17.4,209,12,26.1,0.00720,0.00960,57.7,55.5,12,1001,0,82.1,13.50,0.00,0.00
15min,AgWx,beryljct,423,12MAY2020:14:30:00,71.6,13.67,68.2,68.6,68.9,70.1,68.0,26,29,23,0.680,32.3,35.1,29.9,18.87,17.0,202,16,25.2,0.00722,0.00964,58.1,55.6,12,989,0,81.8,13.50,0.00,0.00
15min,AgWx,beryljct,423,12MAY2020:14:45:00,71.7,13.72,69.2,69.3,68.7,69.6,67.9,25,29,23,0.615,31.8,35.6,29.3,15.94,18.4,202,12,26.2,0.00720,0.00973,58.5,55.6,12,975,0,80.1,13.50,0.00,0.00
15min,AgWx,beryljct,423,12MAY2020:15:00:00,71.8,13.64,69.3,69.7,69.1,69.8,68.3,25,29,23,0.587,32.0,36.2,29.6,25.63,21.3,198,15,28.4,0.00724,0.00999,59.0,55.7,12,953,0,78.7,13.50,0.00,0.00
15min,AgWx,beryljct,423,12MAY2020:15:15:00,72.1,13.63,69.3,69.7,69.4,70.2,68.2,25,27,23,0.601,31.8,34.5,30.3,22.12,21.1,184,12,28.8,0.00720,0.00998,59.4,55.7,12,930,0,78.8,13.50,0.00,0.00
15min,AgWx,beryljct,423,12MAY2020:15:30:00,72.3,13.62,70.1,70.0,69.7,70.6,68.7,25,29,22,0.618,31.9,35.5,29.6,17.84,20.9,196,11,31.8,0.00713,0.00990,59.7,55.8,12,908,0,78.5,13.50,0.00,0.00
15min,AgWx,beryljct,423,12MAY2020:15:45:00,72.8,13.6,69.9,69.9,70.2,70.9,69.4,25,29,22,0.619,33.2,36.5,29.7,16.75,17.5,201,12,27.5,0.00680,0.00929,60.0,55.8,12,869,0,79.0,13.50,0.00,0.00
15min,AgWx,beryljct,423,12MAY2020:16:00:00,73.0,13.64,68.9,68.7,69.2,70.4,68.6,24,27,22,0.593,31.2,34.4,28.7,23.57,21.6,207,13,32.1,0.00681,0.00959,60.3,55.9,12,846,0,76.3,13.50,0.01,0.00
15min,AgWx,beryljct,423,12MAY2020:16:15:00,73.0,13.63,67.6,68.0,68.9,69.7,68.0,25,28,23,0.558,31.9,34.6,29.6,20.34,21.2,208,15,30.9,0.00634,0.00904,60.6,56.0,12,760,0,75.1,13.50,0.00,0.00
15min,AgWx,beryljct,423,12MAY2020:16:30:00,72.9,13.62,67.1,67.7,69.0,70.3,67.7,24,26,22,0.558,30.6,33.3,29.1,20.34,20.8,198,9.5,30.4,0.00596,0.00865,60.8,56.0,12,673,0,74.9,13.51,0.00,0.00
15min,AgWx,beryljct,423,12MAY2020:16:45:00,72.0,13.67,69.0,69.6,67.6,69.6,66.4,26,29,24,0.593,31.5,33.9,29.2,23.04,18.6,208,13,29.1,0.00503,0.00739,60.9,56.1,12,550,0,72.4,13.50,0.00,0.00
15min,AgWx,beryljct,423,12MAY2020:17:00:00,72.1,13.63,67.5,67.9,68.5,69.7,67.9,24,28,22,0.633,30.3,33.3,28.3,17.98,21.6,206,13,29.7,0.00601,0.00874,61.1,56.2,12,679,0,73.2,13.50,0.00,0.00
15min,AgWx,beryljct,423,12MAY2020:17:15:00,71.7,13.65,66.8,66.9,67.4,68.6,66.5,25,27,23,0.555,30.0,32.5,28.3,15.06,20.2,216,12,26.5,0.00458,0.00707,61.1,56.2,12,404,0,70.3,13.50,0.00,0.00
15min,AgWx,beryljct,423,12MAY2020:17:30:00,71.2,13.67,68.6,68.5,67.7,68.6,66.5,26,28,24,0.620,31.4,33.2,29.2,21.22,18.5,208,12,25.0,0.00512,0.00748,61.2,56.3,12,571,0,72.3,13.51,0.01,0.00
15min,AgWx,beryljct,423,12MAY2020:17:45:00,71.5,13.63,67.9,68.4,68.5,68.9,68.2,25,27,24,0.593,31.7,33.7,30.1,19.73,20.6,206,8.7,27.9,0.00536,0.00793,61.2,56.4,12,568,0,71.0,13.50,0.00,0.00
15min,AgWx,beryljct,423,12MAY2020:18:00:00,71.5,13.63,68.0,68.0,68.1,68.4,68.0,25,28,24,0.596,31.3,34.0,29.6,20.06,20.1,207,11,26.3,0.00498,0.00749,61.1,56.5,12,501,0,69.4,13.50,0.00,0.00
15min,AgWx,beryljct,423,12MAY2020:18:15:00,71.3,13.64,67.7,67.8,67.9,68.3,67.6,24,26,22,0.561,29.6,31.9,27.3,20.67,19.9,204,10,29.1,0.00477,0.00729,61.1,56.6,12,450,0,68.6,13.50,0.00,0.00
15min,AgWx,beryljct,423,12MAY2020:18:30:00,71.1,13.65,67.1,67.2,67.5,68.0,67.0,24,26,23,0.518,29.8,32.0,27.8,17.27,19.9,212,12,26.9,0.00448,0.00695,61.0,56.6,12,399,0,67.8,13.51,0.00,0.00
15min,AgWx,beryljct,423,12MAY2020:18:45:00,70.7,13.31,67.1,67.2,67.2,67.5,67.0,25,26,23,0.560,30.0,31.2,27.9,24.14,20.0,200,11,27.9,0.00419,0.00662,61.0,56.7,12,345,0,67.2,13.51,0.00,0.00
15min,AgWx,beryljct,423,12MAY2020:19:00:00,70.2,13.16,66.7,66.6,67.0,67.4,66.3,26,27,24,0.557,30.5,32.4,29.6,19.73,18.2,198,13,26.2,0.00363,0.00588,60.9,56.8,12,268,0,66.5,13.50,0.00,0.00
15min,AgWx,beryljct,423,12MAY2020:19:15:00,69.6,13.13,65.5,66.1,66.5,66.8,66.1,25,27,25,0.575,29.9,31.2,29.0,15.06,20.5,194,10,33.0,0.00358,0.00597,60.7,56.8,12,214,0,65.6,13.50,0.00,0.00
15min,AgWx,beryljct,423,12MAY2020:19:30:00,68.9,13.08,65.5,65.3,65.7,66.3,65.2,26,27,25,0.561,29.9,31.0,28.9,17.36,18.5,205,11,25.2,0.00303,0.00521,60.6,56.9,12,155,0,64.3,13.51,0.00,0.00
15min,AgWx,beryljct,423,12MAY2020:19:45:00,68.1,13.1,64.9,65.0,65.2,65.7,64.6,27,29,25,0.582,30.3,32.0,29.2,14.95,16.1,208,13,25.7,0.00131,0.00155,60.5,56.9,12,116,0,63.5,13.51,0.00,0.00
15min,AgWx,beryljct,423,12MAY2020:20:00:00,67.1,13.07,64.8,64.7,64.8,65.3,64.3,27,28,26,0.551,29.9,31.0,29.1,19.77,15.9,205,11,23.3,0.00120,0.00143,60.3,57.0,12,52,0,62.1,13.51,0.00,0.00
15min,AgWx,beryljct,423,12MAY2020:20:15:00,66.2,13.03,64.6,64.1,64.0,64.7,63.4,28,29,26,0.553,29.8,30.5,28.9,20.45,14.0,209,11,21.3,0.00106,0.00129,60.2,57.0,12,21,0,60.7,13.51,0.00,0.00
15min,AgWx,beryljct,423,12MAY2020:20:30:00,65.3,13.02,63.3,63.2,63.5,64.3,62.7,28,30,27,0.571,30.0,30.9,29.2,13.26,13.0,210,10,21.4,0.00098,0.00121,60.0,57.1,12,10,0,59.8,13.51,0.00,0.00
15min,AgWx,beryljct,423,12MAY2020:20:45:00,64.4,13,63.0,62.8,62.9,63.3,62.5,29,30,28,0.575,30.3,31.0,29.6,13.57,13.0,217,11,19.1,0.00094,0.00115,59.9,57.1,12,2,0,58.9,13.51,0.00,0.00
15min,AgWx,beryljct,423,12MAY2020:21:00:00,63.7,13.01,62.1,61.6,61.9,62.9,61.3,31,32,29,0.582,30.7,31.4,29.9,12.5,10.3,220,11,19.7,0.00077,0.00098,59.7,57.2,12,0,0,57.5,13.51,0.00,0.00
15min,AgWx,beryljct,423,12MAY2020:21:15:00,63.0,13.01,62.0,61.8,61.8,62.2,61.3,31,32,29,0.571,30.6,31.2,29.9,11.49,11.6,218,11,17.9,0.00083,0.00103,59.6,57.2,13,0,0,57.6,13.51,0.00,0.00
15min,AgWx,beryljct,423,12MAY2020:21:30:00,62.4,12.99,62.1,61.9,61.1,61.9,60.2,32,33,30,0.570,30.7,31.4,29.9,16.11,11.6,221,9.8,19.3,0.00080,0.00100,59.4,57.2,12,0,0,56.9,13.51,0.00,0.00
15min,AgWx,beryljct,423,12MAY2020:21:45:00,62.1,12.98,61.9,61.5,61.5,61.9,61.1,31,32,30,0.569,30.4,31.0,30.0,13.44,12.9,216,8.9,18.3,0.00088,0.00107,59.2,57.2,12,0,0,57.5,13.51,0.00,0.00
15min,AgWx,beryljct,423,12MAY2020:22:00:00,62.0,12.97,60.5,61.0,61.3,62.0,60.8,31,32,30,0.575,30.4,31.1,29.7,9.43,12.3,219,8.6,19.8,0.00085,0.00105,59.1,57.2,12,0,0,57.2,13.51,0.00,0.00
15min,AgWx,beryljct,423,12MAY2020:22:15:00,61.7,12.97,60.2,60.2,60.6,60.9,60.2,32,33,31,0.587,30.6,31.0,30.2,8.97,11.0,218,9.4,15.9,0.00076,0.00095,58.9,57.3,12,0,0,56.3,13.51,0.00,0.00
15min,AgWx,beryljct,423,12MAY2020:22:30:00,61.4,12.96,61.0,60.7,60.5,61.2,59.8,32,34,31,0.571,30.6,31.1,30.1,15.48,12.6,220,9.6,19.2,0.00082,0.00100,58.8,57.3,12,0,0,56.4,13.51,0.00,0.00
15min,AgWx,beryljct,423,12MAY2020:22:45:00,61.1,12.96,61.1,60.7,60.4,60.9,60.0,32,33,31,0.570,30.6,31.0,30.2,14.62,12.9,220,9.8,18.9,0.00083,0.00101,58.6,57.3,12,0,0,56.2,13.51,0.00,0.00
15min,AgWx,beryljct,423,12MAY2020:23:00:00,61.0,12.95,60.3,60.4,60.4,60.8,59.9,32,33,31,0.564,30.3,30.7,29.7,13.5,13.9,219,8.7,19.1,0.00087,0.00106,58.5,57.3,12,0,0,56.2,13.51,0.00,0.00
15min,AgWx,beryljct,423,12MAY2020:23:15:00,60.7,12.95,60.5,59.8,59.7,60.4,59.1,32,33,31,0.543,29.9,30.8,29.1,16.09,12.0,217,9.5,18.3,0.00078,0.00096,58.3,57.3,12,0,0,55.3,13.51,0.00,0.00
15min,AgWx,beryljct,423,12MAY2020:23:30:00,60.4,12.93,59.3,59.1,59.5,60.0,59.0,32,33,31,0.554,29.6,30.2,29.0,11.95,11.7,218,8.4,16.8,0.00077,0.00095,58.2,57.3,12,0,0,55.1,13.51,0.00,0.00
15min,AgWx,bigpiney,439,12MAY2020:00:00:00,46.2,12.61,44.8,44.6,44.3,44.6,43.9,82,84,81,0.815,39.3,39.6,39.1,11.09,11.0,197,7.1,13.8,0.00016,0.00018,45.8,35.4,55,0,1,0.0,6.58,0.00,0.00
15min,AgWx,bigpiney,439,12MAY2020:00:15:00,46.4,12.6,44.0,44.1,44.6,44.9,44.1,81,83,80,0.816,39.2,39.4,38.9,5.042,8.3,201,13,12.6,0.00015,0.00019,45.7,35.4,55,0,1,0.0,6.58,0.00,0.00
15min,AgWx,bigpiney,439,12MAY2020:00:30:00,46.7,12.59,44.4,44.6,44.4,44.8,44.0,81,83,79,0.799,39.0,39.4,38.6,1.688,4.0,203,22,7.0,0.00011,0.00014,45.6,35.5,55,0,1,0.0,6.58,0.00,0.00
15min,AgWx,bigpiney,439,12MAY2020:00:45:00,46.7,12.58,42.8,42.7,43.6,44.6,42.7,85,89,80,0.827,39.5,39.8,38.9,1.6,2.9,7.1,21,6.3,0.00007,0.00010,45.5,35.4,55,0,1,0.0,6.58,0.00,0.00
15min,AgWx,bigpiney,439,12MAY2020:01:00:00,46.6,12.58,42.9,42.7,42.7,43.2,42.5,89,90,86,0.822,39.6,39.9,39.3,1.074,1.2,280,30,2.4,0.00003,0.00004,45.3,35.4,55,0,1,0.0,6.58,0.00,0.00
15min,AgWx,bigpiney,439,12MAY2020:01:15:00,46.3,12.56,42.8,42.5,42.3,42.8,42.1,91,92,88,0.840,39.8,40.2,39.4,5.722,4.2,276,14,7.0,0.00005,0.00007,45.2,35.3,55,0,1,0.0,6.58,0.00,0.00
15min,AgWx,bigpiney,439,12MAY2020:01:30:00,46.1,12.54,42.2,42.1,42.4,42.5,42.1,92,92,91,0.836,40.1,40.3,39.9,4.384,5.7,327,27,9.5,0.00005,0.00007,45.1,35.4,55,0,1,0.0,6.59,0.00,0.01
15min,AgWx,bigpiney,439,12MAY2020:01:45:00,45.7,12.54,41.6,41.6,41.9,42.1,41.6,93,94,92,0.833,40.0,40.2,39.8,3.025,3.4,45,22,4.9,0.00004,0.00005,45.0,35.4,55,0,1,0.0,6.59,0.00,0.00
15min,AgWx,bigpiney,439,12MAY2020:02:00:00,45.2,12.52,40.8,40.6,41.0,41.6,40.6,94,95,93,0.812,39.3,39.8,39.0,3.749,3.3,106,7.8,4.5,0.00003,0.00004,44.9,35.3,55,0,1,0.0,6.59,0.00,0.00
15min,AgWx,bigpiney,439,12MAY2020:02:15:00,44.8,12.51,40.4,40.1,40.3,40.6,40.0,95,95,95,0.799,38.9,39.2,38.6,2.28,2.2,134,29,3.9,0.00002,0.00003,44.8,35.4,55,0,1,0.0,6.59,0.00,0.00
15min,AgWx,bigpiney,439,12MAY2020:02:30:00,44.4,12.49,41.0,40.8,40.4,40.8,40.1,95,95,95,0.822,39.1,39.5,38.8,2.346,1.3,205,27,3.0,0.00001,0.00002,44.6,35.4,55,0,1,0.0,6.59,0.00,0.00
15min,AgWx,bigpiney,439,12MAY2020:02:45:00,44.1,12.48,40.8,40.8,40.8,40.9,40.7,95,95,94,0.814,39.4,39.6,39.2,3.99,4.0,195,7.3,5.3,0.00003,0.00004,44.5,35.3,55,0,1,0.0,6.59,0.00,0.00
15min,AgWx,bigpiney,439,12MAY2020:03:00:00,43.9,12.47,40.5,40.4,40.5,40.7,40.3,94,95,94,0.807,39.0,39.2,38.7,1.535,3.2,230,12,4.2,0.00003,0.00004,44.5,35.3,55,0,1,0.0,6.59,0.00,0.00
15min,AgWx,bigpiney,439,12MAY2020:03:15:00,43.8,12.46,40.6,40.4,40.4,40.5,40.3,95,95,95,0.808,39.1,39.2,38.9,1.885,1.8,254,19,3.7,0.00002,0.00003,44.3,35.3,55,0,1,0.0,6.59,0.00,0.00
15min,AgWx,bigpiney,439,12MAY2020:03:30:00,43.8,12.46,41.4,41.3,40.9,41.3,40.4,95,96,94,0.832,39.6,39.8,39.1,2.302,2.3,233,64,4.2,0.00002,0.00003,44.2,35.4,55,0,1,0.0,6.59,0.00,0.00
15min,AgWx,bigpiney,439,12MAY2020:03:45:00,43.9,12.45,41.3,41.2,41.3,41.5,41.2,94,95,93,0.820,39.6,39.8,39.3,3.705,3.9,225,25,6.0,0.00003,0.00004,44.1,35.3,55,0,1,0.0,6.59,0.00,0.00
15min,AgWx,bigpiney,439,12MAY2020:04:00:00,43.8,12.44,40.4,40.2,40.5,41.2,40.1,93,94,93,0.794,38.8,39.5,38.5,4.691,4.4,164,16,5.3,0.00004,0.00005,44.0,35.2,55,0,1,0.0,6.59,0.00,0.00
15min,AgWx,bigpiney,439,12MAY2020:04:15:00,43.6,12.42,39.1,38.5,39.4,40.2,38.3,94,95,94,0.752,37.8,38.7,36.7,2.499,3.1,126,17,4.8,0.00003,0.00004,43.9,35.2,55,0,1,0.0,6.59,0.00,0.00
15min,AgWx,bigpiney,439,12MAY2020:04:30:00,42.9,12.44,39.3,39.1,38.8,39.1,38.5,96,96,95,0.780,37.7,38.2,37.3,2.324,2.1,138,12,3.0,0.00002,0.00002,43.8,35.2,55,0,1,0.0,6.59,0.00,0.00
15min,AgWx,bigpiney,439,12MAY2020:04:45:00,42.4,12.43,39.3,39.1,38.9,39.4,38.4,96,97,96,0.780,37.9,38.7,37.3,1.359,2.3,168,13,2.8,0.00001,0.00002,43.7,35.3,55,0,1,0.0,6.59,0.00,0.00
15min,AgWx,bigpiney,439,12MAY2020:05:00:00,42.2,12.43,40.0,39.7,39.1,39.7,38.5,97,97,96,0.802,38.2,38.9,37.5,0,2.0,311,34,3.5,0.00001,0.00002,43.6,35.2,55,0,1,0.0,6.59,0.00,0.00
15min,AgWx,bigpiney,439,12MAY2020:05:15:00,42.2,12.42,40.1,39.9,39.8,40.0,39.6,96,97,95,0.800,38.8,39.0,38.4,1.732,1.5,300,37,2.9,0.00001,0.00002,43.5,35.3,55,0,1,0.0,6.59,0.00,0.00
15min,AgWx,bigpiney,439,12MAY2020:05:30:00,42.3,12.42,39.6,39.5,40.0,40.4,39.5,95,96,94,0.783,38.6,39.0,38.1,3.047,2.5,316,10,4.2,0.00002,0.00003,43.4,35.2,55,0,1,0.0,6.59,0.00,0.00
15min,AgWx,bigpiney,439,12MAY2020:05:45:00,42.3,12.42,40.3,40.1,39.7,40.1,39.4,96,96,95,0.806,38.6,39.0,38.1,1.622,3.8,281,12,5.4,0.00002,0.00003,43.3,35.2,55,0,1,0.0,6.59,0.00,0.00
15min,AgWx,bigpiney,439,12MAY2020:06:00:00,42.5,12.42,40.4,40.4,40.2,40.4,40.1,96,96,96,0.813,39.1,39.3,38.9,0.986,1.7,87,41,6.2,0.00002,0.00002,43.2,35.2,55,1,1,0.0,6.59,0.00,0.00
15min,AgWx,bigpiney,439,12MAY2020:06:15:00,42.6,12.41,40.0,39.9,40.0,40.4,39.8,96,96,95,0.799,38.9,39.2,38.6,1.403,2.0,340,16,2.8,0.00003,0.00005,43.1,35.1,55,2,1,0.0,6.59,0.00,0.00
15min,AgWx,bigpiney,439,12MAY2020:06:30:00,42.7,12.42,39.9,39.7,39.8,40.0,39.7,96,96,95,0.796,38.7,38.9,38.5,2.389,2.2,321,12,3.6,0.00005,0.00006,43.0,35.1,55,7,1,0.0,6.59,0.00,0.00
15min,AgWx,bigpiney,439,12MAY2020:06:45:00,42.7,12.44,40.1,39.9,39.8,40.0,39.7,96,96,96,0.802,38.8,39.0,38.6,4.538,2.0,282,23,4.5,0.00007,0.00009,42.9,35.1,55,17,1,0.0,6.59,0.00,0.00
15min,AgWx,bigpiney,439,12MAY2020:07:00:00,42.8,12.51,40.8,40.7,40.3,40.7,39.9,96,96,96,0.825,39.3,39.6,38.9,2.389,2.4,330,31,5.4,0.00011,0.00013,42.8,35.1,55,47,1,0.0,6.59,0.00,0.00
15min,AgWx,bigpiney,439,12MAY2020:07:15:00,43.0,12.54,41.5,41.4,41.0,41.4,40.7,95,96,95,0.837,39.8,40.0,39.6,4.275,4.8,296,6.9,7.2,0.00021,0.00025,42.7,35.1,55,57,1,0.0,6.59,0.00,0.00
15min,AgWx,bigpiney,439,12MAY2020:07:30:00,43.3,12.64,41.9,41.7,41.6,41.8,41.4,94,95,94,0.842,40.1,40.3,39.9,0,1.9,345,20,4.3,0.00032,0.00036,42.6,35.1,55,81,1,0.0,6.59,0.00,0.00
15min,AgWx,bigpiney,439,12MAY2020:07:45:00,43.6,12.69,42.1,41.9,41.8,41.9,41.7,94,94,93,0.839,40.1,40.4,39.9,0,1.3,315,17,4.2,0.00044,0.00048,42.5,35.0,55,104,1,0.0,6.59,0.00,0.00